Weather History for Eastsound, WA

Change the Weather History Date:

Monday, September 8, 2014

  Actual Average (KBLI) Record (KBLI)
Temperature  
Mean Temperature 60 °F 59 °F  
Max Temperature 66 °F 69 °F 83 °F (1989)
Min Temperature 53 °F 49 °F 39 °F (1962)
Degree Days  
Heating Degree Days 6 6  
Month to date heating degree days 41  
Cooling Degree Days 0 0  
Month to date cooling degree days 0  
Year to date cooling degree days 40  
Growing Degree Days 10 (Base 50)    
Moisture  
Dew Point 54 °F    
Average Humidity 84    
Maximum Humidity 100    
Minimum Humidity 68    
Precipitation  
Precipitation 0.00 in 0.06 in 0.69 in (1994)
Month to date precipitation 0.44  
Year to date precipitation 20.79  
Sea Level Pressure  
Sea Level Pressure 29.84 in    
Wind  
Wind Speed 6 mph (South)    
Max Wind Speed 15 mph    
Max Gust Speed 21 mph    
Visibility 10 miles    
Events Rain    
T = Trace of Precipitation, MM = Missing Value Source: NWS Daily Summary

Daily Weather History Graph

Daily Weather History Graph

Search for Another Location

Airport:

Trip Planner

Search our weather history database for the weather conditions in past years. The results will help you decide how hot, cold, wet, or windy it might be!

Date:

Astronomy

Sep. 08, 2014 Rise Set
Actual Time 6:38 AM PDT 7:38 PM PDT
Civil Twilight 6:06 AM PDT 8:10 PM PDT
Nautical Twilight 5:27 AM PDT 8:49 PM PDT
Astronomical Twilight 4:46 AM PDT 9:30 PM PDT
Moon 7:19 PM PDT (9/8) 6:10 AM PDT (9/8)
Length of Visible Light 14h 04m
Length of Day
13h 00m
Full, 100% of the Moon is Illuminated
Sep 8
Full
Sep 8
Full
Sep 15
Last Quarter
Sep 23
New
Oct 1
First Quarter

Hourly Weather History & Observations

Time (PDT) Temp. Dew Point Humidity Pressure Visibility Wind Dir Wind Speed Gust Speed Precip Events Conditions
12:15 AM 55.4 °F 53.6 °F 94% 29.80 in 10.0 mi North - - N/A   Clear
12:35 AM 55.4 °F 51.8 °F 88% 29.80 in 10.0 mi Calm Calm - N/A   Clear
12:55 AM 55.4 °F 51.8 °F 88% 29.80 in 10.0 mi North - - N/A   Clear
1:15 AM 55.4 °F 51.8 °F 88% 29.80 in 10.0 mi Calm Calm - N/A   Clear
1:35 AM 55.4 °F 51.8 °F 88% 29.80 in 10.0 mi Calm Calm - N/A   Clear
1:55 AM 55.4 °F 51.8 °F 88% 29.80 in 10.0 mi Calm Calm - N/A   Clear
2:15 AM 55.4 °F 51.8 °F 88% 29.80 in 10.0 mi Calm Calm - N/A   Clear
2:35 AM 55.4 °F 51.8 °F 88% 29.81 in 10.0 mi Calm Calm - N/A   Clear
2:55 AM 55.4 °F 51.8 °F 88% 29.81 in 10.0 mi Calm Calm - N/A   Clear
3:15 AM 55.4 °F 51.8 °F 88% 29.81 in 10.0 mi South 4.6 mph - N/A   Clear
3:35 AM 53.6 °F 51.8 °F 94% 29.81 in 10.0 mi South 6.9 mph - N/A   Clear
3:55 AM 53.6 °F 51.8 °F 94% 29.81 in 10.0 mi South 6.9 mph - N/A   Clear
4:15 AM 53.6 °F 51.8 °F 94% 29.82 in 10.0 mi South 6.9 mph - N/A   Clear
4:35 AM 53.6 °F 51.8 °F 94% 29.82 in 10.0 mi South 6.9 mph - N/A   Clear
4:55 AM 53.6 °F 51.8 °F 94% 29.82 in 10.0 mi South 9.2 mph - N/A   Clear
5:15 AM 53.6 °F 51.8 °F 94% 29.81 in 10.0 mi South 5.8 mph - N/A   Clear
5:35 AM 53.6 °F 51.8 °F 94% 29.81 in 10.0 mi Calm Calm - N/A   Clear
5:55 AM 53.6 °F 51.8 °F 94% 29.81 in 10.0 mi South 8.1 mph - N/A Rain Light Rain
6:15 AM 55.4 °F 51.8 °F 88% 29.81 in 10.0 mi South 6.9 mph 16.1 mph N/A   Clear
6:35 AM 53.6 °F 51.8 °F 94% 29.82 in 10.0 mi South 8.1 mph - N/A   Clear
6:55 AM 53.6 °F 51.8 °F 94% 29.82 in 10.0 mi South 10.4 mph - N/A   Clear
7:15 AM 53.6 °F 53.6 °F 100% 29.82 in 10.0 mi South 9.2 mph 16.1 mph N/A   Clear
7:35 AM 55.4 °F 53.6 °F 94% 29.83 in 10.0 mi South 10.4 mph 16.1 mph N/A   Clear
7:55 AM 55.4 °F 53.6 °F 94% 29.83 in 10.0 mi South 11.5 mph - N/A   Partly Cloudy
8:15 AM 55.4 °F 53.6 °F 94% 29.83 in 10.0 mi South 15.0 mph - N/A   Scattered Clouds
8:35 AM 55.4 °F 53.6 °F 94% 29.84 in 10.0 mi South 13.8 mph 20.7 mph N/A   Mostly Cloudy
8:55 AM 55.4 °F 53.6 °F 94% 29.83 in 10.0 mi South 15.0 mph 20.7 mph N/A   Mostly Cloudy
9:15 AM 55.4 °F 53.6 °F 94% 29.83 in 10.0 mi South 13.8 mph 20.7 mph N/A   Mostly Cloudy
9:35 AM 55.4 °F 53.6 °F 94% 29.84 in 10.0 mi South 11.5 mph 20.7 mph N/A   Overcast
9:55 AM 57.2 °F 53.6 °F 88% 29.84 in 10.0 mi South 15.0 mph 20.7 mph N/A   Mostly Cloudy
10:15 AM 57.2 °F 53.6 °F 88% 29.85 in 10.0 mi South 13.8 mph 19.6 mph N/A   Mostly Cloudy
10:35 AM 57.2 °F 53.6 °F 88% 29.85 in 10.0 mi South 10.4 mph 17.3 mph N/A   Scattered Clouds
10:55 AM 59.0 °F 55.4 °F 88% 29.85 in 10.0 mi South 12.7 mph 19.6 mph N/A   Partly Cloudy
11:15 AM 60.8 °F 55.4 °F 82% 29.86 in 10.0 mi South 12.7 mph - N/A   Mostly Cloudy
11:35 AM 62.6 °F 55.4 °F 77% 29.86 in 10.0 mi South 15.0 mph 20.7 mph N/A   Mostly Cloudy
11:55 AM 62.6 °F 55.4 °F 77% 29.86 in 10.0 mi South 11.5 mph 20.7 mph N/A   Scattered Clouds
12:15 PM 62.6 °F 55.4 °F 77% 29.86 in 10.0 mi South 12.7 mph 18.4 mph N/A   Clear
12:35 PM 64.4 °F 55.4 °F 73% 29.86 in 10.0 mi South 11.5 mph 19.6 mph N/A   Clear
12:55 PM 62.6 °F 55.4 °F 77% 29.86 in 10.0 mi South 12.7 mph 20.7 mph N/A   Clear
1:15 PM 64.4 °F 55.4 °F 73% 29.86 in 10.0 mi South 10.4 mph 18.4 mph N/A   Clear
1:35 PM 64.4 °F 55.4 °F 73% 29.86 in 10.0 mi South 11.5 mph 16.1 mph N/A   Clear
1:55 PM 64.4 °F 55.4 °F 73% 29.86 in 10.0 mi South 11.5 mph 16.1 mph N/A   Clear
2:15 PM 64.4 °F 55.4 °F 73% 29.86 in 10.0 mi South 10.4 mph 16.1 mph N/A   Clear
2:35 PM 66.2 °F 55.4 °F 68% 29.86 in 10.0 mi South 9.2 mph - N/A   Clear
2:55 PM 66.2 °F 55.4 °F 68% 29.86 in 10.0 mi South 6.9 mph - N/A   Clear
3:15 PM 66.2 °F 55.4 °F 68% 29.86 in 10.0 mi South 9.2 mph - N/A   Clear
3:35 PM 66.2 °F 55.4 °F 68% 29.86 in 10.0 mi South 10.4 mph - N/A   Clear
3:55 PM 66.2 °F 55.4 °F 68% 29.86 in 10.0 mi South 8.1 mph - N/A   Clear
4:15 PM 66.2 °F 55.4 °F 68% 29.85 in 10.0 mi South 11.5 mph - N/A   Clear
4:35 PM 66.2 °F 55.4 °F 68% 29.85 in 10.0 mi South 13.8 mph 17.3 mph N/A   Clear
4:55 PM 64.4 °F 55.4 °F 73% 29.85 in 10.0 mi South 9.2 mph - N/A   Clear
5:15 PM 64.4 °F 55.4 °F 73% 29.85 in 10.0 mi South 11.5 mph 16.1 mph N/A   Clear
5:35 PM 64.4 °F 55.4 °F 73% 29.85 in 10.0 mi SSW 10.4 mph - N/A   Clear
5:55 PM 64.4 °F 55.4 °F 73% 29.85 in 10.0 mi South 11.5 mph - N/A   Clear
6:15 PM 62.6 °F 55.4 °F 77% 29.84 in 10.0 mi SSW 12.7 mph 17.3 mph N/A   Clear
6:35 PM 62.6 °F 53.6 °F 72% 29.84 in 10.0 mi SSW 12.7 mph - N/A   Clear
6:55 PM 60.8 °F 53.6 °F 77% 29.84 in 10.0 mi SSW 12.7 mph - N/A   Clear
7:15 PM 59.0 °F 53.6 °F 82% 29.84 in 10.0 mi South 8.1 mph - N/A   Clear
7:35 PM 59.0 °F 53.6 °F 82% 29.84 in 10.0 mi South 6.9 mph - N/A   Clear
7:55 PM 59.0 °F 53.6 °F 82% 29.85 in 10.0 mi South 6.9 mph - N/A   Clear
8:15 PM 57.2 °F 53.6 °F 88% 29.86 in 10.0 mi SSE 3.5 mph - N/A   Clear
8:35 PM 57.2 °F 53.6 °F 88% 29.87 in 10.0 mi Calm Calm - N/A   Clear
8:55 PM 57.2 °F 53.6 °F 88% 29.88 in 10.0 mi South 4.6 mph - N/A   Scattered Clouds
9:15 PM 57.2 °F 53.6 °F 88% 29.88 in 10.0 mi South 4.6 mph - N/A   Mostly Cloudy
9:35 PM 57.2 °F 53.6 °F 88% 29.88 in 10.0 mi South 4.6 mph - N/A   Scattered Clouds
9:55 PM 57.2 °F 53.6 °F 88% 29.88 in 10.0 mi South 3.5 mph - N/A   Clear
10:15 PM 57.2 °F 53.6 °F 88% 29.89 in 10.0 mi North - - N/A   Clear
10:35 PM 57.2 °F 53.6 °F 88% 29.89 in 10.0 mi South 3.5 mph - N/A   Clear
10:55 PM 57.2 °F 53.6 °F 88% 29.90 in 10.0 mi North - - N/A   Clear
11:15 PM 55.4 °F 53.6 °F 94% 29.91 in 10.0 mi Calm Calm - N/A   Clear
11:35 PM 55.4 °F 53.6 °F 94% 29.91 in 10.0 mi North - - N/A   Clear